Regional Weather Roundup
Issued by NWS Little Rock, AR

Home | Current Version | Previous Version | Graphics & Text | Print | Product List | Glossary On
Versions: 1 2 3 4 5 6 7 8 9 10 11 12 13 14 15 16 17 18 19 20 21 22 23 24 25 26 27 28 29 30 31 32 33 34 35 36 37 38 39 40 41 42 43 44 45 46 47 48 49 50
000
ASUS44 KLZK 241705
RWRLZK

WEATHER ROUNDUP FOR ARKANSAS
NATIONAL WEATHER SERVICE LITTLE ROCK AR
1200 PM CDT FRI MAR 24 2017

NOTE: "FAIR" INDICATES FEW OR NO CLOUDS BELOW 12,000 FEET WITH NO
SIGNIFICANT WEATHER AND/OR OBSTRUCTIONS TO VISIBILITY.

ARZ001-003-010-029-241800-
NORTHWEST ARKANSAS

CITY           SKY/WX    TMP DP  RH WIND       PRES   REMARKS
FAYETTEVILLE   CLOUDY    67  54  63 S20G38    29.94F
FORT SMITH     CLOUDY    72  51  47 S16G26    29.94F
HARRISON       PTSUNNY   70  53  54 S20G32    30.01S
BENTONVILLE    CLOUDY    64  52  63 S10G20    29.95F
ROGERS         CLOUDY    65  53  65 S15G22    29.95F
SILOAM SPGS    CLOUDY    63  54  72 S15       29.94F
HIGHFILL       CLOUDY    64  55  72 S15G28    29.94S
SPRINGDALE     CLOUDY    66  54  63 S16G29    29.96F
$$

ARZ004-005-016-241800-
NORTH CENTRAL ARKANSAS

CITY           SKY/WX    TMP DP  RH WIND       PRES   REMARKS
BATESVILLE     CLOUDY    72  57  60 S12G23    30.09F
FLIPPIN        CLOUDY    72  52  49 S17G26    29.99S
MTN HOME       CLOUDY    70  54  56 SW18G26   30.01F
$$

ARZ040-041-241800-
WEST CENTRAL ARKANSAS

CITY           SKY/WX    TMP DP  RH WIND       PRES   REMARKS
MENA           PTSUNNY   73  61  64 SE8G17    29.99F
MOUNT IDA      CLOUDY    72  59  63 S8G24     29.99F
$$

ARZ009-017-025-026-028-241800-
NORTHEAST ARKANSAS

CITY           SKY/WX    TMP DP  RH WIND       PRES   REMARKS
CORNING        FAIR      73  63  68 S22G35    30.11F
JONESBORO      CLOUDY    72  60  66 S23G31    30.13F
NEWPORT        CLOUDY    72  62  71 S22         N/A
WALNUT RIDGE   CLOUDY    73  61  64 S30       30.10F
BLYTHEVILLE    CLOUDY    72  62  71 S16       30.17F
$$

ARZ022-023-033-042-044-241800-
CENTRAL ARKANSAS

CITY           SKY/WX    TMP DP  RH WIND       PRES   REMARKS
LITTLE ROCK    CLOUDY    73  61  65 S17G28    30.10F
N LITTLE ROCK    N/A     71  60  69 S13G28    30.08F
JACKSONVILLE   PTSUNNY   73  61  64 S13G21    30.09F
CONWAY           N/A     72  59  64 S15G25    30.04F
SEARCY         CLOUDY    73  62  68 S15G29    30.12F
HOT SPRINGS    CLOUDY    70  61  73 S8G21     30.06F
RUSSELLVILLE   CLOUDY    72  58  61 S9G21     30.02F
CLINTON        PTSUNNY   72  59  64 S10G22    30.05F
$$

ARZ036-241800-
EAST ARKANSAS

CITY           SKY/WX    TMP DP  RH WIND       PRES   REMARKS
WEST MEMPHIS   CLOUDY    72  61  68 S24       30.16F
$$

ARZ050-053-066-070-073-241800-
SOUTHWEST ARKANSAS

CITY           SKY/WX    TMP DP  RH WIND       PRES   REMARKS
ARKADELPHIA    PTSUNNY   70  62  76 S8G18     30.07F
CAMDEN         CLOUDY    72  57  60 S12G18    30.09F
TEXARKANA      CLOUDY    73  62  68 S14G28    30.02F
EL DORADO      CLOUDY    72  62  71 S10       30.11S
DE QUEEN       CLOUDY    72  62  71 S10G23    29.97F
$$

ARZ056-057-069-241800-
SOUTHEAST ARKANSAS

CITY           SKY/WX    TMP DP  RH WIND       PRES   REMARKS
PINE BLUFF     PTSUNNY   73  60  63 S20G28    30.12F
STUTTGART      CLOUDY    73  55  53 S20G30    30.14S
MONTICELLO     CLOUDY    72  62  71 S13       30.14S

$$





USA.gov is the U.S. government's official web portal to all federal, state and local government web resources and services.